Вернуться в каталог

STARLINK-34877

АктивенСвязьVLEO
NORAD 65630·PAYLOAD·🇺🇸 United States

Запущен Sep 18, 2025 с Cape Canaveral Space Force Station

Loading…

Ближайшие Пролёты (ближайшие 24 часа)

TLE

СвежийSource: CelesTrak SupGP

Эпоха: Sep 14, 2026, 21:29 UTC

1 65630C 25210J   26257.89562500 -.00013148  00000+0 -38787-3 0  2578
2 65630  53.1575 144.0868 0001211  84.9734  70.4437 15.34446235    12

Отслеживайте STARLINK-34877 в реальном времени с AllMySat

Download on the App Store